[[{"header":{"parameterUnit":"m.s-1","parameterCategory":2,"la1":30.2991,"la2":30.254,"lo1":-89.0895,"lo2":-89.0444,"dy":0.0017,"dx":0.0017,"nx":28,"ny":28,"refTime":"2024-05-03T21:00:00:Z","depth":"0","parameterNumber":2,"parameterNumberName":"U-component_of_CURRENTS"},"data":[0,0,0,0,0,0,0,0,0,0,0,0,0,0,0,0,0,0,0,0,0,0,0,0,0,0,0,0,0,0,0,0,0,0,0,0,0,0,0,0,0,0,0,0,0,0,0,0,0,0,0,0,0,0,0,0,0,0,0.1496,0.1496,0,0.1441,0.144,0.1439,0.1395,0.1394,0.1394,0.1394,0.1347,0.1346,0.1345,0,0,0,0,0,0,0,0,0,0,0,0,0,0.1507,0.1507,0.1496,0.1496,0.1495,0.1441,0.144,0.1439,0.1395,0.1394,0.1394,0.1394,0.1347,0.1346,0.1345,0,0,0,0,0,0,0,0,0,0,0,0,0,0.148,0.1507,0.1496,0.1468,0.1465,0.1441,0.144,0.1439,0.1395,0.1394,0.1394,0.1394,0.1348,0.1346,0.1345,0.1343,0,0,0.134,0.134,0,0,0,0,0,0,0,0,0.1482,0.1479,0.1473,0.147,0.1467,0.1426,0.1426,0.1408,0.1395,0.1419,0.1394,0.1393,0.1376,0.1372,0.1359,0.1341,0.1339,0.134,0.1339,0.1338,0.1338,0,0,0,0,0,0,0,0.1484,0.1481,0.1472,0.1472,0.1469,0.1439,0.1435,0.1422,0.1399,0.1417,0.1414,0.1412,0.1374,0.1361,0.1358,0.1338,0.134,0.1339,0.1338,0.1337,0.1364,0.1366,0,0,0,0,0,0,0.1498,0.1483,0.1474,0.147,0.1476,0.144,0.1435,0.1438,0.1399,0.1393,0.1412,0.141,0.1364,0.136,0.1356,0.1408,0.1338,0.1337,0.1336,0.1363,0.1365,0.1366,0,0,0,0,0,0,0.1499,0.1498,0.1476,0.1477,0.1472,0.144,0.1443,0.1437,0.1436,0.1395,0.1389,0.142,0.1363,0.1358,0.1359,0.1403,0.1336,0.1335,0.1361,0.1363,0.1366,0.1475,0,0,0,0,0,0,0.15,0.1499,0.1508,0.1478,0.1473,0.1482,0.1444,0.1436,0.1435,0.1432,0.14,0.1394,0.1362,0.1362,0.1357,0.14,0.1334,0.1359,0.1362,0.1365,0.1469,0.1481,0.1491,0,0,0,0,0,0.15,0.1514,0.1508,0.1507,0.1486,0.1483,0.1479,0.1452,0.1437,0.1447,0.1421,0.1396,0.1378,0.1361,0.1356,0.14,0.1357,0.1361,0.1365,0.1464,0.1478,0.149,0,0,0,0,0,0,0.1516,0.151,0.1503,0.1513,0.151,0.1477,0.1481,0.1466,0.1452,0.1449,0.1409,0.1402,0.1422,0.1394,0.1376,0.1417,0.1367,0.137,0.1445,0.1458,0.1468,0.1492,0.1333,0,0,0,0,0,0.1527,0.1539,0.1528,0.1536,0.154,0.1516,0.1511,0.1498,0.148,0.1474,0.1449,0.1431,0.1432,0.1431,0.1418,0.1436,0.1449,0.1463,0.1474,0.1483,0.1499,0.1562,0.1581,0.1379,0.1378,0.1378,0,0,0.1531,0.1532,0.1536,0.1542,0.1534,0.1548,0.1512,0.1517,0.1531,0.1472,0.1482,0.1466,0.1444,0.1466,0.1473,0.1449,0.155,0.1488,0.1496,0.1507,0.1569,0.1589,0.1606,0.1381,0.1381,0.138,0,0,0.1551,0.1555,0.1574,0.1582,0.1587,0.1577,0.1588,0.1572,0.157,0.1577,0.1548,0.1564,0.1542,0.1548,0.1547,0.1611,0.1604,0.1606,0.1681,0.1743,0.1761,0.1777,0.1833,0.1853,0.1613,0.1613,0.1613,0,0.1558,0.158,0.1578,0.1604,0.1615,0.16,0.1625,0.1626,0.161,0.1625,0.1595,0.161,0.1588,0.1641,0.1661,0.1639,0.1668,0.1635,0.176,0.1776,0.179,0.1844,0.1864,0.1619,0.1618,0.1618,0.1617,0,0.1591,0.1614,0.1629,0.1659,0.1675,0.1694,0.1703,0.1719,0.1713,0.1713,0.1757,0.1735,0.1748,0.1751,0.1722,0.1818,0.1805,0.1768,0.1732,0.1818,0.1868,0.1888,0.1627,0.1625,0.1623,0.1622,0,0,0.159,0.1642,0.1647,0.1671,0.1707,0.1719,0.1767,0.1803,0.1836,0.1841,0.1892,0.1906,0.1901,0.19,0.1882,0.1934,0.2058,0.19,0.1901,0.1966,0.2206,0.2209,0.2229,0.2049,0.2052,0.2055,0.2206,0,0.1615,0.1668,0.1692,0.1743,0.1772,0.1796,0.1837,0.1873,0.1896,0.194,0.1963,0.1992,0.1957,0.1967,0.2025,0.2038,0.2113,0.2021,0.2105,0.2108,0.2108,0.2253,0.2155,0.2282,0.2225,0.2228,0.223,0,0.1637,0.1672,0.1726,0.1788,0.1803,0.1829,0.19,0.1937,0.2011,0.2034,0.2094,0.2098,0.2179,0.2126,0.2246,0.219,0.2221,0.2235,0.224,0.2219,0.2148,0.2184,0.2319,0.221,0.226,0.2257,0.2255,0,0.1625,0.1694,0.1735,0.1757,0.1825,0.1854,0.1888,0.196,0.2006,0.2095,0.2142,0.2226,0.2268,0.2331,0.2361,0.2316,0.249,0.2424,0.2468,0.2467,0.2389,0.2375,0.2435,0.2542,0.2541,0.2541,0.254,0,0.1638,0.1669,0.1727,0.1748,0.1802,0.1848,0.191,0.1963,0.205,0.2119,0.2183,0.2257,0.2324,0.2413,0.2431,0.2528,0.2556,0.253,0.2528,0.2424,0.2412,0.2312,0.2257,0.2546,0.2545,0.2544,0.2543,0,0.1615,0.1654,0.1704,0.1773,0.1795,0.1828,0.1912,0.1958,0.2047,0.2145,0.2179,0.2313,0.244,0.251,0.2619,0.2623,0.2621,0.2719,0.2594,0.2576,0.2498,0.2452,0.2452,0.2384,0.2808,0.2809,0.281,0,0.1609,0.1632,0.1708,0.1732,0.1758,0.1812,0.185,0.1943,0.2,0.2172,0.222,0.2383,0.2483,0.267,0.2729,0.2821,0.2684,0.2761,0.2662,0.2534,0.2481,0.2349,0.228,0.2602,0.2602,0.2601,0.2601,0,0.1598,0.1621,0.1659,0.1709,0.1744,0.1797,0.1858,0.1904,0.2021,0.212,0.2258,0.2354,0.2562,0.2635,0.2771,0.2793,0.2608,0.2754,0.2653,0.2381,0.221,0.2126,0.2455,0.2595,0.2596,0.2596,0.2597,0.2597,0.1584,0.1598,0.1642,0.1682,0.1724,0.1762,0.1782,0.1863,0.1955,0.2081,0.2222,0.2352,0.2477,0.2673,0.2687,0.2639,0.2622,0.2532,0.2508,0.2401,0.2275,0.2607,0.2718,0.2719,0.272,0.2721,0.2721,0,0.1557,0.1572,0.1612,0.165,0.1667,0.1711,0.1773,0.1787,0.186,0.2013,0.2134,0.2288,0.2358,0.2433,0.2469,0.2385,0.2251,0.2293,0.2059,0.202,0.2352,0.2279,0.2258,0.2258,0.2258,0.2259,0.2259,0.2259,0.1541,0.1552,0.1568,0.1579,0.1603,0.16,0.1617,0.1663,0.1753,0.187,0.1974,0.2094,0.2193,0.2217,0.2142,0.2098,0.1907,0.184,0.1826,0.2018,0.2035,0.2052,0.1969,0.1884,0.1884,0.1384,0.138,0.1377]},{"header":{"parameterUnit":"m.s-1","parameterCategory":2,"la1":30.2991,"la2":30.254,"lo1":-89.0895,"lo2":-89.0444,"dy":0.0017,"dx":0.0017,"nx":28,"ny":28,"refTime":"2024-05-03T21:00:00:Z","depth":"0","parameterNumber":3,"parameterNumberName":"V-component_of_CURRENTS"},"data":[0,0,0,0,0,0,0,0,0,0,0,0,0,0,0,0,0,0,0,0,0,0,0,0,0,0,0,0,0,0,0,0,0,0,0,0,0,0,0,0,0,0,0,0,0,0,0,0,0,0,0,0,0,0,0,0,0,0,0.0079,0.0079,0,0.0066,0.0066,0.0065,0.0063,0.0063,0.0063,0.0063,-0.0018,-0.002,-0.0022,0,0,0,0,0,0,0,0,0,0,0,0,0,0.0113,0.0112,0.0079,0.0079,0.0079,0.0066,0.0066,0.0065,0.0063,0.0063,0.0063,0.0063,-0.0017,-0.002,-0.0022,0,0,0,0,0,0,0,0,0,0,0,0,0,0.0098,0.0112,0.0079,0.0077,0.0076,0.0066,0.0066,0.0065,0.0063,0.0063,0.0063,0.0063,-0.0016,-0.0019,-0.0023,-0.0048,0,0,-0.0033,-0.0035,0,0,0,0,0,0,0,0,0.0099,0.0097,0.0077,0.0077,0.0076,0.0067,0.0048,0.0024,0.0063,0.0067,0.0063,0.0064,0.0004,-0.0001,-0.0003,-0.0052,-0.0056,-0.0034,-0.0036,-0.0037,-0.0038,0,0,0,0,0,0,0,0.01,0.0098,0.0074,0.0077,0.0076,0.0079,0.0077,0.0044,0.0033,0.0067,0.0067,0.0066,0.0004,0.0,-0.0005,-0.0057,-0.0033,-0.0036,-0.0039,-0.004,-0.0137,-0.0137,0,0,0,0,0,0,0.0102,0.0098,0.0074,0.0073,0.0089,0.0079,0.0076,0.0069,0.0035,0.0031,0.0066,0.0066,0.0006,-0.0001,-0.0008,-0.0027,-0.0037,-0.004,-0.0042,-0.0136,-0.0137,-0.0138,0,0,0,0,0,0,0.0102,0.0099,0.0075,0.0086,0.0084,0.0078,0.007,0.0069,0.0066,0.0035,0.0029,0.0064,0.0006,-0.0004,-0.0036,-0.003,-0.0042,-0.0045,-0.0136,-0.0137,-0.0137,-0.0073,0,0,0,0,0,0,0.0103,0.0099,0.0095,0.0086,0.0083,0.0075,0.007,0.0068,0.0065,0.0065,0.0032,0.0025,0.0005,-0.0031,-0.0039,-0.0035,-0.0048,-0.0135,-0.0136,-0.0137,-0.0074,-0.0071,-0.0069,0,0,0,0,0,0.0104,0.0104,0.0095,0.0092,0.0077,0.0075,0.0074,0.007,0.0065,0.0068,0.0042,0.0026,-0.0043,-0.0034,-0.0044,-0.0041,-0.0135,-0.0136,-0.0137,-0.0075,-0.0072,-0.0069,0,0,0,0,0,0,0.012,0.0104,0.0093,0.0088,0.0082,0.0075,0.0078,0.007,0.0053,0.005,0.0019,0.001,-0.0017,-0.0045,-0.0034,-0.0075,-0.0092,-0.0095,-0.0042,-0.0039,-0.0036,-0.0009,-0.005,0,0,0,0,0,0.0119,0.0113,0.0099,0.0096,0.0093,0.0083,0.0081,0.0077,0.0061,0.0055,0.0031,-0.0002,-0.0031,-0.0046,-0.0077,-0.0101,-0.0116,-0.0108,-0.0105,-0.0102,-0.0089,-0.0115,-0.0113,-0.0141,-0.0141,-0.0141,0,0,0.0125,0.0115,0.0112,0.0099,0.0094,0.0099,0.0082,0.0083,0.0088,0.0046,0.004,0.0005,-0.0037,-0.0057,-0.0072,-0.0078,-0.0101,-0.0104,-0.01,-0.0089,-0.0116,-0.0113,-0.011,-0.0142,-0.0142,-0.0142,0,0,0.0144,0.0124,0.0129,0.0124,0.0117,0.0111,0.0111,0.0101,0.0097,0.0082,0.0053,0.0027,-0.002,-0.0039,-0.0058,-0.0063,-0.0088,-0.0083,-0.0042,-0.0067,-0.0064,-0.0062,-0.0066,-0.0065,-0.0078,-0.0078,-0.0078,0,0.0158,0.0154,0.0132,0.0139,0.0142,0.0119,0.0133,0.0125,0.0105,0.0104,0.0087,0.0031,-0.0006,-0.0023,-0.0023,-0.0052,-0.0068,-0.0046,-0.006,-0.0059,-0.0057,-0.0063,-0.0062,-0.0075,-0.0075,-0.0076,-0.0076,0,0.0181,0.0179,0.0184,0.0183,0.0181,0.0189,0.0176,0.0175,0.0161,0.015,0.0128,0.0082,0.0053,0.0031,0.0003,-0.0008,-0.0022,-0.0053,-0.006,-0.005,-0.0057,-0.0057,-0.0071,-0.0072,-0.0073,-0.0073,0,0,0.0222,0.0206,0.0208,0.0214,0.0206,0.0211,0.0219,0.0222,0.0235,0.0202,0.0214,0.0157,0.0132,0.0108,0.0066,0.0043,0.0039,0.0004,0.0001,0.0017,-0.0003,-0.0006,-0.0007,0.0002,0.0002,0.0002,-0.0006,0,0.0255,0.0273,0.0255,0.0279,0.0291,0.0274,0.0285,0.028,0.0272,0.0275,0.0228,0.0212,0.016,0.0147,0.0117,0.0056,0.0039,0.0045,-0.003,-0.0032,-0.0022,-0.0007,0.0041,0.0037,-0.0007,-0.0007,-0.0007,0,0.0292,0.0299,0.0324,0.033,0.0334,0.0345,0.0366,0.0371,0.0364,0.0356,0.0335,0.0294,0.0261,0.021,0.0133,0.0138,0.0077,0.0029,0.0027,0.0004,-0.0035,0.0015,0.0038,-0.0066,-0.0008,-0.0008,-0.0008,0,0.0341,0.0351,0.0372,0.0374,0.0376,0.0391,0.0397,0.0399,0.0414,0.0408,0.0421,0.0366,0.0347,0.0264,0.0165,0.0146,0.0083,0.0042,-0.0012,-0.0013,0.0005,0.0006,-0.0066,-0.001,-0.001,-0.001,-0.001,0,0.0388,0.0405,0.0397,0.0411,0.0443,0.0432,0.0471,0.0471,0.0486,0.0519,0.0463,0.0478,0.0356,0.0302,0.0201,0.0106,0.011,0.0009,-0.0015,0.0028,0.0031,-0.008,-0.0141,-0.001,-0.001,-0.001,-0.001,0,0.0433,0.0427,0.0454,0.0462,0.0465,0.049,0.0516,0.0549,0.0554,0.0602,0.0602,0.0564,0.0501,0.0384,0.0259,0.0163,0.0017,0.0024,0.0094,0.0079,-0.0073,-0.0132,-0.0205,-0.025,-0.0029,-0.0029,-0.0029,0,0.0455,0.0471,0.0489,0.0513,0.0517,0.0548,0.0575,0.0582,0.0626,0.066,0.0693,0.0649,0.0642,0.047,0.0301,0.0148,0.0028,0.0064,0.0029,-0.0063,-0.0146,-0.0181,-0.0216,0.0083,0.0084,0.0084,0.0085,0,0.0496,0.05,0.0521,0.0571,0.0603,0.0637,0.0682,0.0725,0.0754,0.0802,0.0861,0.0859,0.0714,0.059,0.0367,0.0242,0.0015,0.0072,-0.0045,-0.0076,-0.0096,-0.0155,0.0077,0.0091,0.009,0.009,0.0089,0.0089,0.0524,0.0552,0.0587,0.0633,0.0674,0.0737,0.0783,0.0845,0.0921,0.1019,0.1013,0.1072,0.0855,0.0571,0.0373,0.0067,0.0048,-0.0027,-0.0091,-0.0118,-0.0162,0.0092,0.0084,0.0083,0.0083,0.0082,0.0082,0,0.0569,0.06,0.065,0.0711,0.0768,0.0777,0.0862,0.0921,0.1029,0.1147,0.1223,0.1216,0.0938,0.0628,0.0211,-0.0036,-0.0131,-0.0183,-0.0225,-0.0256,-0.0041,-0.0039,-0.0047,-0.0047,-0.0047,-0.0047,-0.0047,-0.0047,0.0595,0.0651,0.0679,0.0781,0.0827,0.0907,0.0961,0.1052,0.1157,0.1324,0.143,0.1481,0.1241,0.0463,-0.0085,-0.0223,-0.0393,-0.0412,-0.0533,-0.0394,-0.0385,-0.0376,-0.039,-0.0471,-0.0472,-0.0692,-0.0694,-0.0696]}],[{"header":{"parameterUnit":"m.s-1","parameterCategory":2,"la1":30.2991,"la2":30.254,"lo1":-89.0895,"lo2":-89.0444,"dy":0.0017,"dx":0.0017,"nx":28,"ny":28,"refTime":"2024-05-03T21:00:00:Z","depth":"2","parameterNumber":2,"parameterNumberName":"U-component_of_CURRENTS"},"data":[0,0,0,0,0,0,0,0,0,0,0,0,0,0,0,0,0,0,0,0,0,0,0,0,0,0,0,0,0,0,0,0,0,0,0,0,0,0,0,0,0,0,0,0,0,0,0,0,0,0,0,0,0,0,0,0,0,0,0.1551,0.155,0,0.148,0.1479,0.1478,0.1432,0.1432,0.1432,0.1432,0.1383,0.1382,0.1381,0,0,0,0,0,0,0,0,0,0,0,0,0,0.1675,0.1673,0.1551,0.155,0.1549,0.148,0.1479,0.1478,0.1432,0.1432,0.1432,0.1431,0.1383,0.1382,0.1381,0,0,0,0,0,0,0,0,0,0,0,0,0,0.1614,0.1672,0.1551,0.1519,0.1515,0.148,0.1479,0.1478,0.1432,0.1432,0.1432,0.1431,0.1384,0.1382,0.138,0.1378,0,0,0.1375,0.1375,0,0,0,0,0,0,0,0,0.1617,0.1609,0.1524,0.1521,0.1517,0.1465,0.1505,0.1445,0.1432,0.1463,0.1431,0.1431,0.1413,0.1409,0.1395,0.1376,0.1373,0.1375,0.1374,0.1374,0.1373,0,0,0,0,0,0,0,0.1621,0.1612,0.1522,0.1523,0.1519,0.1517,0.1507,0.1493,0.1441,0.1461,0.1457,0.145,0.1411,0.1397,0.1394,0.1373,0.1375,0.1374,0.1373,0.1372,0.1392,0.1394,0,0,0,0,0,0,0.1629,0.1616,0.1525,0.152,0.1567,0.1515,0.1504,0.1482,0.1441,0.1434,0.145,0.1448,0.14,0.1396,0.1392,0.1439,0.1374,0.1372,0.1371,0.1391,0.1393,0.1394,0,0,0,0,0,0,0.1632,0.1621,0.1528,0.1568,0.1556,0.1513,0.1488,0.148,0.1475,0.1433,0.1426,0.1454,0.1399,0.1394,0.1392,0.1435,0.1371,0.137,0.1389,0.1391,0.1393,0.1501,0,0,0,0,0,0,0.1636,0.1622,0.1611,0.1568,0.1554,0.1522,0.1488,0.1479,0.147,0.1467,0.1433,0.1428,0.1399,0.1395,0.139,0.1432,0.1369,0.1387,0.139,0.1393,0.1495,0.1506,0.1516,0,0,0,0,0,0.164,0.1625,0.1611,0.16,0.1538,0.1523,0.1517,0.1485,0.1471,0.1477,0.1453,0.1429,0.141,0.1394,0.1389,0.1431,0.1386,0.1389,0.1392,0.1491,0.1504,0.1515,0,0,0,0,0,0,0.167,0.1617,0.1601,0.1569,0.1556,0.1516,0.151,0.1496,0.148,0.1478,0.144,0.1434,0.1452,0.1423,0.1407,0.1445,0.1397,0.14,0.1474,0.1486,0.1496,0.152,0.1367,0,0,0,0,0,0.1673,0.1648,0.1611,0.1591,0.1583,0.1553,0.1542,0.1528,0.1506,0.1498,0.1477,0.1459,0.146,0.1458,0.1445,0.1461,0.1466,0.1487,0.1497,0.1506,0.1522,0.1573,0.1591,0.1405,0.1405,0.1405,0,0,0.1675,0.1648,0.163,0.1597,0.1579,0.158,0.1546,0.1539,0.1552,0.1497,0.1507,0.1493,0.1471,0.1492,0.1498,0.1475,0.1561,0.151,0.1518,0.1529,0.1579,0.1597,0.1613,0.1407,0.1407,0.1407,0,0,0.1686,0.165,0.164,0.1634,0.1618,0.1604,0.161,0.1585,0.1585,0.1592,0.1568,0.1584,0.1562,0.1571,0.1569,0.1629,0.1614,0.1623,0.1696,0.1747,0.1763,0.1777,0.181,0.1827,0.1629,0.163,0.163,0,0.1695,0.1671,0.1641,0.1644,0.1642,0.1623,0.1632,0.1635,0.1618,0.1634,0.161,0.1627,0.1607,0.1659,0.1679,0.1657,0.1673,0.1652,0.1763,0.1777,0.179,0.182,0.1837,0.1635,0.1634,0.1634,0.1633,0,0.1707,0.1691,0.169,0.1683,0.1686,0.1689,0.1692,0.1711,0.171,0.1714,0.1761,0.1745,0.1759,0.1764,0.1737,0.1824,0.1802,0.1772,0.1736,0.1815,0.1842,0.1857,0.1643,0.1641,0.1639,0.1638,0,0,0.1708,0.1697,0.1696,0.1701,0.1705,0.1709,0.1751,0.1781,0.1816,0.183,0.1877,0.1903,0.1903,0.1903,0.1889,0.1935,0.2036,0.1897,0.1897,0.194,0.2146,0.2064,0.2073,0.2029,0.2032,0.2034,0.213,0,0.1724,0.1734,0.1727,0.175,0.1754,0.1766,0.1805,0.1841,0.1866,0.1909,0.1942,0.1973,0.1955,0.1967,0.2019,0.2023,0.2082,0.2013,0.2055,0.2056,0.1982,0.209,0.1905,0.1969,0.2145,0.2147,0.2149,0,0.1731,0.1739,0.1758,0.178,0.1784,0.1803,0.1865,0.1899,0.197,0.1994,0.2055,0.2063,0.2142,0.21,0.2203,0.216,0.2173,0.2179,0.2183,0.2081,0.2004,0.1917,0.199,0.2175,0.2173,0.2171,0.2169,0,0.1742,0.1754,0.1771,0.1777,0.1809,0.1833,0.1859,0.1926,0.197,0.2051,0.2091,0.2173,0.2216,0.2265,0.2299,0.2253,0.2402,0.233,0.228,0.2273,0.2111,0.2084,0.2422,0.2422,0.2421,0.2421,0.2421,0,0.175,0.176,0.1775,0.1786,0.1818,0.1843,0.1898,0.194,0.2017,0.2079,0.2134,0.2204,0.2263,0.2344,0.2352,0.2385,0.2457,0.2324,0.2308,0.214,0.2116,0.2278,0.226,0.2425,0.2424,0.2423,0.2423,0,0.1743,0.1756,0.1771,0.1805,0.1817,0.184,0.1901,0.1944,0.2026,0.2111,0.2143,0.2256,0.2348,0.2411,0.2492,0.2448,0.2481,0.2476,0.2271,0.2228,0.2295,0.2281,0.2403,0.2401,0.2399,0.2398,0.2397,0,0.1738,0.1744,0.1771,0.178,0.1787,0.1828,0.1856,0.1936,0.1984,0.2143,0.2178,0.2307,0.2357,0.2457,0.2427,0.2438,0.2501,0.2264,0.2132,0.2329,0.2301,0.229,0.2278,0.1964,0.196,0.1956,0.1953,0,0.1724,0.1726,0.1737,0.1762,0.1782,0.1808,0.1853,0.1895,0.2005,0.2069,0.2182,0.2238,0.2322,0.2237,0.2252,0.2232,0.2236,0.2184,0.2489,0.1985,0.192,0.189,0.1893,0.192,0.1924,0.1926,0.1928,0.1929,0.1705,0.1704,0.1722,0.174,0.1758,0.1779,0.1789,0.1815,0.1872,0.19,0.2035,0.2013,0.2062,0.1941,0.1925,0.1918,0.204,0.1934,0.1944,0.1959,0.1879,0.1813,0.1779,0.1781,0.1783,0.1785,0.1786,0,0.1691,0.1697,0.1704,0.1725,0.1717,0.1745,0.178,0.1731,0.1721,0.1721,0.1715,0.1571,0.1516,0.1609,0.1527,0.1524,0.1499,0.148,0.1431,0.1465,0.1496,0.1389,0.1161,0.1159,0.1157,0.1155,0,0,0.1693,0.1691,0.1695,0.1684,0.1687,0.1661,0.1661,0.1536,0.149,0.1351,0.1292,0.1304,0.1484,0.1242,0.1254,0.1198,0.131,0.1154,0.1658,0.163,0.1657,0.1766,0.1643,0,0,0,0,0]},{"header":{"parameterUnit":"m.s-1","parameterCategory":2,"la1":30.2991,"la2":30.254,"lo1":-89.0895,"lo2":-89.0444,"dy":0.0017,"dx":0.0017,"nx":28,"ny":28,"refTime":"2024-05-03T21:00:00:Z","depth":"2","parameterNumber":3,"parameterNumberName":"V-component_of_CURRENTS"},"data":[0,0,0,0,0,0,0,0,0,0,0,0,0,0,0,0,0,0,0,0,0,0,0,0,0,0,0,0,0,0,0,0,0,0,0,0,0,0,0,0,0,0,0,0,0,0,0,0,0,0,0,0,0,0,0,0,0,0,-0.0106,-0.0104,0,-0.0023,-0.0023,-0.0022,0.0002,0.0003,0.0003,0.0003,-0.0042,-0.0044,-0.0045,0,0,0,0,0,0,0,0,0,0,0,0,0,-0.0267,-0.0265,-0.0106,-0.0104,-0.0103,-0.0023,-0.0023,-0.0022,0.0002,0.0003,0.0003,0.0003,-0.0042,-0.0044,-0.0045,0,0,0,0,0,0,0,0,0,0,0,0,0,-0.0198,-0.0264,-0.0106,-0.0076,-0.0072,-0.0023,-0.0023,-0.0022,0.0002,0.0003,0.0003,0.0003,-0.0041,-0.0043,-0.0045,-0.0062,0,0,-0.0052,-0.0052,0,0,0,0,0,0,0,0,-0.0202,-0.0193,-0.0082,-0.0078,-0.0074,-0.0015,-0.0096,-0.004,0.0002,-0.0033,0.0003,0.0003,-0.0041,-0.0043,-0.0035,-0.0064,-0.0066,-0.0052,-0.0053,-0.0054,-0.0054,0,0,0,0,0,0,0,-0.0207,-0.0197,-0.0079,-0.0081,-0.0075,-0.0075,-0.0066,-0.0085,-0.0046,-0.003,-0.0026,-0.0007,-0.0041,-0.0033,-0.0036,-0.0067,-0.0052,-0.0053,-0.0055,-0.0055,-0.013,-0.0131,0,0,0,0,0,0,-0.0203,-0.0201,-0.0082,-0.0076,-0.0132,-0.0072,-0.0061,-0.0039,-0.0043,-0.0041,-0.0007,-0.0006,-0.003,-0.0034,-0.0038,-0.0049,-0.0054,-0.0056,-0.0057,-0.0129,-0.013,-0.0131,0,0,0,0,0,0,-0.0207,-0.0193,-0.0085,-0.0132,-0.0118,-0.0068,-0.0044,-0.0037,-0.0022,-0.0024,-0.0025,0.0003,-0.003,-0.0035,-0.0055,-0.0052,-0.0057,-0.0058,-0.0129,-0.013,-0.0131,-0.0079,0,0,0,0,0,0,-0.0212,-0.0195,-0.0181,-0.0132,-0.0114,-0.005,-0.0043,-0.0036,-0.0008,-0.0006,-0.0016,-0.002,-0.003,-0.0052,-0.0057,-0.0054,-0.006,-0.0128,-0.0129,-0.013,-0.0079,-0.0078,-0.0077,0,0,0,0,0,-0.0218,-0.0198,-0.0181,-0.0166,-0.0095,-0.0048,-0.0041,-0.001,-0.0008,0.0002,-0.0012,-0.0019,-0.0066,-0.0054,-0.006,-0.0058,-0.0127,-0.0129,-0.013,-0.008,-0.0078,-0.0077,0,0,0,0,0,0,-0.0256,-0.0191,-0.0172,-0.0132,-0.0089,-0.0042,-0.0021,-0.0008,-0.0008,-0.0008,-0.0025,-0.003,-0.0049,-0.0068,-0.0055,-0.0088,-0.01,-0.0103,-0.0059,-0.0058,-0.0057,-0.0031,-0.0062,0,0,0,0,0,-0.0257,-0.023,-0.0167,-0.0136,-0.0109,-0.0067,-0.0045,-0.0023,-0.001,-0.0007,-0.0018,-0.0039,-0.0062,-0.007,-0.0093,-0.0107,-0.0127,-0.0114,-0.0112,-0.0111,-0.0097,-0.0129,-0.0128,-0.0137,-0.0137,-0.0137,0,0,-0.0261,-0.0223,-0.0206,-0.0143,-0.0105,-0.0067,-0.0055,-0.0012,0.001,-0.0016,-0.0007,-0.0035,-0.0067,-0.0081,-0.0092,-0.0093,-0.0123,-0.0113,-0.0111,-0.0098,-0.013,-0.0129,-0.0128,-0.0138,-0.0138,-0.0138,0,0,-0.0253,-0.022,-0.0189,-0.0155,-0.0093,-0.0065,-0.0052,-0.0004,0.0011,0.0018,-0.0004,-0.0024,-0.0053,-0.0068,-0.0083,-0.0092,-0.0118,-0.011,-0.0074,-0.0105,-0.0103,-0.0103,-0.0135,-0.0137,-0.0104,-0.0104,-0.0104,0,-0.0259,-0.021,-0.0174,-0.0136,-0.0105,-0.0064,-0.0026,-0.0003,0.0024,0.0033,0.0024,-0.0015,-0.0042,-0.0057,-0.006,-0.0084,-0.011,-0.0071,-0.01,-0.0099,-0.0099,-0.0132,-0.0136,-0.0102,-0.0102,-0.0102,-0.0103,0,-0.0224,-0.0187,-0.0165,-0.0105,-0.0074,-0.0034,0.0011,0.0035,0.0049,0.0064,0.0058,0.0025,0.0005,-0.0015,-0.0038,-0.0054,-0.0077,-0.0095,-0.0095,-0.0094,-0.0131,-0.0135,-0.0099,-0.0099,-0.01,-0.0101,0,0,-0.0214,-0.0153,-0.0142,-0.0108,-0.0054,-0.0016,0.0018,0.0068,0.0097,0.01,0.0118,0.008,0.0067,0.0048,0.0014,-0.0011,-0.004,-0.0048,-0.0051,-0.0063,-0.0113,-0.008,-0.0082,-0.0064,-0.0065,-0.0065,-0.014,0,-0.0187,-0.0131,-0.0105,-0.0043,-0.0002,0.0033,0.0067,0.0106,0.0124,0.0145,0.0125,0.012,0.0091,0.0079,0.0051,-0.0018,-0.0048,-0.0018,-0.0126,-0.0128,-0.0085,-0.0084,-0.0064,-0.0124,-0.0144,-0.0145,-0.0145,0,-0.0141,-0.0112,-0.0056,0.0003,0.0027,0.0066,0.0131,0.0164,0.0194,0.0205,0.0201,0.0178,0.0151,0.0117,0.0029,0.0047,-0.0024,-0.0079,-0.0084,-0.0068,-0.0102,-0.0129,-0.0131,-0.0153,-0.0152,-0.0151,-0.0151,0,-0.0129,-0.0066,-0.0024,-0.0003,0.0063,0.0104,0.0142,0.0185,0.0228,0.0241,0.026,0.022,0.0209,0.0123,0.0039,0.002,-0.0062,-0.0108,-0.0146,-0.0145,-0.0155,-0.0153,-0.0176,-0.0176,-0.0176,-0.0176,-0.0176,0,-0.0097,-0.0051,-0.0008,0.0023,0.0098,0.0126,0.0207,0.024,0.0279,0.0331,0.0294,0.0314,0.0209,0.0159,0.0056,-0.0032,-0.0046,-0.0131,-0.0156,-0.0138,-0.0134,-0.0179,-0.0178,-0.0179,-0.0178,-0.0178,-0.0177,0,-0.0055,-0.0041,0.003,0.009,0.0116,0.018,0.0271,0.0316,0.0346,0.0407,0.0414,0.0385,0.0326,0.0229,0.0092,0.0006,-0.0098,-0.013,-0.0092,-0.011,-0.0178,-0.0174,-0.0206,-0.0206,-0.0205,-0.0205,-0.0204,0,-0.0026,0.0006,0.009,0.0124,0.0166,0.0249,0.0303,0.0359,0.0404,0.0458,0.0482,0.0451,0.0453,0.0288,0.0128,-0.0024,-0.0059,-0.0117,-0.0148,-0.0156,-0.0178,-0.0175,-0.0172,-0.0158,-0.0157,-0.0157,-0.0156,0,0.0022,0.0056,0.0103,0.0169,0.0234,0.0325,0.04,0.0449,0.051,0.0567,0.061,0.0616,0.0489,0.0356,0.0174,0.0059,-0.0089,-0.0109,-0.0133,-0.0134,-0.0111,-0.0132,-0.0131,-0.0151,-0.0151,-0.0152,-0.0152,-0.0152,0.0056,0.0091,0.0125,0.0208,0.0285,0.0372,0.0443,0.0524,0.0616,0.071,0.0691,0.0718,0.0569,0.0347,0.0171,-0.003,-0.0042,-0.0132,-0.0134,-0.0137,-0.0099,-0.0074,-0.01,-0.0101,-0.0101,-0.0101,-0.0101,0,0.0061,0.0078,0.0141,0.0223,0.0321,0.037,0.0482,0.0568,0.0689,0.0774,0.0835,0.0698,0.0569,0.0395,0.011,-0.006,-0.0099,-0.0119,-0.0133,-0.0136,-0.014,-0.0102,-0.0105,-0.0105,-0.0106,-0.0106,0,0,0.0045,0.0076,0.0108,0.0227,0.0309,0.0433,0.051,0.0662,0.0754,0.085,0.0874,0.0869,0.0653,0.0444,0.0219,0.0061,-0.0005,0.0023,0.0045,0.0053,0.0052,-0.0125,-0.0067,0,0,0,0,0]}],[{"header":{"parameterUnit":"m.s-1","parameterCategory":2,"la1":30.2991,"la2":30.254,"lo1":-89.0895,"lo2":-89.0444,"dy":0.0017,"dx":0.0017,"nx":28,"ny":28,"refTime":"2024-05-03T21:00:00:Z","depth":"4","parameterNumber":2,"parameterNumberName":"U-component_of_CURRENTS"},"data":[0,0,0,0,0,0,0,0,0,0,0,0,0,0,0,0,0,0,0,0,0,0,0,0,0,0,0,0,0,0,0,0,0,0,0,0,0,0,0,0,0,0,0,0,0,0,0,0,0,0,0,0,0,0,0,0,0,0,0.0637,0.0637,0,0.0619,0.0619,0.0618,0.0644,0.0645,0.0647,0.0648,0.0738,0.0739,0.0741,0,0,0,0,0,0,0,0,0,0,0,0,0,0.0639,0.0639,0.0637,0.0637,0.0637,0.0619,0.0619,0.0618,0.0644,0.0645,0.0647,0.0649,0.0738,0.0739,0.0741,0,0,0,0,0,0,0,0,0,0,0,0,0,0.0627,0.0639,0.0637,0.0651,0.0653,0.062,0.0619,0.0618,0.0643,0.0645,0.0647,0.0649,0.0737,0.0739,0.0741,0.0712,0,0,0.0746,0.0747,0,0,0,0,0,0,0,0,0.0628,0.0627,0.0649,0.065,0.0652,0.064,0.0653,0.0656,0.0643,0.0642,0.0648,0.065,0.0717,0.072,0.0705,0.0716,0.072,0.0746,0.0747,0.0748,0.0749,0,0,0,0,0,0,0,0.0629,0.0627,0.0625,0.0649,0.0651,0.0641,0.0641,0.0653,0.0667,0.0642,0.0645,0.065,0.0718,0.0703,0.0707,0.0722,0.0746,0.0748,0.0749,0.075,0.0888,0.089,0,0,0,0,0,0,0.0641,0.0628,0.0626,0.0625,0.065,0.064,0.064,0.0638,0.0665,0.0671,0.0648,0.0651,0.0699,0.0705,0.0711,0.0813,0.0748,0.075,0.0751,0.0885,0.0888,0.0891,0,0,0,0,0,0,0.064,0.064,0.0627,0.063,0.0629,0.0638,0.0635,0.0637,0.0645,0.0669,0.0677,0.0659,0.0701,0.0709,0.0764,0.0812,0.0751,0.0752,0.0882,0.0886,0.089,0.0932,0,0,0,0,0,0,0.064,0.064,0.0654,0.0631,0.0629,0.0633,0.0634,0.0635,0.0646,0.065,0.068,0.0689,0.0703,0.0761,0.0765,0.0814,0.0754,0.0879,0.0884,0.0889,0.0927,0.0937,0.0945,0,0,0,0,0,0.064,0.0646,0.0654,0.0655,0.0644,0.0635,0.0632,0.0642,0.0645,0.0655,0.0689,0.069,0.0797,0.0764,0.0768,0.0818,0.0876,0.0882,0.0888,0.0923,0.0935,0.0945,0,0,0,0,0,0,0.0656,0.0649,0.0658,0.0663,0.0665,0.0642,0.0651,0.0648,0.0673,0.0695,0.0705,0.0717,0.0785,0.0796,0.076,0.0878,0.0843,0.085,0.0869,0.0879,0.0888,0.085,0.0755,0,0,0,0,0,0.0665,0.0666,0.0663,0.0668,0.0672,0.0662,0.0663,0.0674,0.0686,0.0697,0.0715,0.0757,0.0804,0.0838,0.0869,0.0921,0.0906,0.0965,0.0973,0.0981,0.0957,0.0982,0.0989,0.091,0.091,0.091,0,0,0.0669,0.0669,0.0669,0.0672,0.067,0.0678,0.0667,0.0682,0.0699,0.0706,0.0742,0.0778,0.0823,0.0891,0.0924,0.0913,0.1002,0.0988,0.0994,0.0965,0.0988,0.0995,0.1001,0.0914,0.0914,0.0913,0,0,0.0671,0.0682,0.0686,0.0689,0.0706,0.0706,0.0715,0.0713,0.0731,0.0774,0.0792,0.0841,0.0911,0.0939,0.0968,0.1039,0.1039,0.1086,0.1107,0.1133,0.1138,0.1143,0.1147,0.1151,0.1101,0.1101,0.1101,0,0.0687,0.0687,0.0687,0.0694,0.0703,0.0719,0.0732,0.0745,0.0766,0.0782,0.0808,0.0897,0.0925,0.0995,0.1033,0.1053,0.1072,0.1059,0.114,0.1144,0.1148,0.1151,0.1155,0.1104,0.1103,0.1103,0.1103,0,0.0685,0.0698,0.0701,0.0717,0.0727,0.0744,0.0766,0.0783,0.0818,0.0838,0.0915,0.0958,0.1012,0.1048,0.1065,0.1126,0.1132,0.1136,0.1101,0.1157,0.1159,0.1162,0.1108,0.1107,0.1106,0.1105,0,0,0.0692,0.0701,0.0707,0.0717,0.0747,0.0751,0.0784,0.0814,0.0844,0.09,0.094,0.1022,0.1052,0.1085,0.1123,0.1148,0.1192,0.1168,0.1168,0.1149,0.1255,0.1203,0.1202,0.1232,0.1232,0.1233,0.1248,0,0.0701,0.071,0.0721,0.0745,0.0749,0.0772,0.0803,0.0838,0.0886,0.0931,0.0989,0.1062,0.1073,0.1129,0.1153,0.118,0.1203,0.1186,0.1221,0.122,0.1149,0.1204,0.1235,0.125,0.1251,0.1252,0.1252,0,0.0703,0.0706,0.0725,0.0752,0.0762,0.0791,0.0835,0.0869,0.0932,0.0976,0.1042,0.1096,0.1149,0.1161,0.1209,0.1213,0.1233,0.1244,0.1246,0.1174,0.1175,0.1183,0.1258,0.1257,0.1257,0.1256,0.1256,0,0.069,0.0714,0.0731,0.0737,0.0773,0.0796,0.0832,0.0887,0.0924,0.1013,0.1056,0.1132,0.1185,0.1217,0.1249,0.1249,0.1292,0.1289,0.1252,0.1248,0.1266,0.1261,0.1313,0.1313,0.1313,0.1313,0.1313,0,0.0686,0.0699,0.0731,0.0736,0.077,0.0806,0.0862,0.0898,0.0974,0.102,0.1093,0.1136,0.1208,0.1247,0.1263,0.1265,0.1306,0.1244,0.125,0.1288,0.1286,0.1269,0.1263,0.1313,0.1313,0.1313,0.1313,0,0.0664,0.0685,0.0701,0.0745,0.0762,0.0792,0.0867,0.0899,0.0981,0.1037,0.1074,0.1154,0.1205,0.1256,0.1305,0.1275,0.1288,0.1282,0.1314,0.1322,0.1217,0.1215,0.1222,0.1221,0.1219,0.1218,0.1217,0,0.0648,0.0653,0.0698,0.0709,0.0736,0.0784,0.0809,0.0894,0.0928,0.103,0.1047,0.1135,0.118,0.119,0.1253,0.1282,0.1278,0.1265,0.1233,0.1204,0.1209,0.1209,0.1208,0.1215,0.1215,0.1214,0.1214,0,0.0614,0.0643,0.0657,0.0682,0.0711,0.073,0.0782,0.0802,0.0892,0.0969,0.1006,0.1048,0.1101,0.1145,0.1194,0.1209,0.1258,0.125,0.1252,0.1222,0.1195,0.1202,0.1202,0.1209,0.121,0.121,0.121,0,0.0594,0.0598,0.0627,0.0644,0.0672,0.0671,0.0701,0.0739,0.0785,0.0901,0.0907,0.0996,0.1076,0.1108,0.1143,0.1169,0.1149,0.1103,0.1112,0.1118,0.1084,0.1035,0.0998,0,0,0,0,0,0.0567,0.0567,0.058,0.0594,0.062,0.0634,0.0676,0.071,0.0792,0.0794,0.0856,0.0905,0.0967,0.1014,0.1023,0.1109,0.1157,0.1114,0.1107,0.1182,0.1188,0.116,0,0,0,0,0,0,0.0551,0.0564,0.0563,0.0547,0.0549,0.0565,0.0584,0.0632,0.0646,0.0737,0.0776,0.0854,0.0931,0.0961,0.1008,0.1026,0.1004,0.1182,0.1179,0.1179,0.1184,0.1188,0.1162,0,0,0,0,0]},{"header":{"parameterUnit":"m.s-1","parameterCategory":2,"la1":30.2991,"la2":30.254,"lo1":-89.0895,"lo2":-89.0444,"dy":0.0017,"dx":0.0017,"nx":28,"ny":28,"refTime":"2024-05-03T21:00:00:Z","depth":"4","parameterNumber":3,"parameterNumberName":"V-component_of_CURRENTS"},"data":[0,0,0,0,0,0,0,0,0,0,0,0,0,0,0,0,0,0,0,0,0,0,0,0,0,0,0,0,0,0,0,0,0,0,0,0,0,0,0,0,0,0,0,0,0,0,0,0,0,0,0,0,0,0,0,0,0,0,0.0141,0.0141,0,0.0151,0.0151,0.0151,0.015,0.015,0.015,0.015,0.0167,0.0167,0.0168,0,0,0,0,0,0,0,0,0,0,0,0,0,0.0137,0.0137,0.0141,0.0141,0.0142,0.0151,0.0151,0.0151,0.015,0.015,0.015,0.015,0.0167,0.0167,0.0168,0,0,0,0,0,0,0,0,0,0,0,0,0,0.0141,0.0137,0.0141,0.0143,0.0144,0.0151,0.0151,0.0151,0.015,0.015,0.015,0.015,0.0167,0.0167,0.0168,0.0173,0,0,0.017,0.0171,0,0,0,0,0,0,0,0,0.0141,0.0141,0.0143,0.0143,0.0144,0.0151,0.0156,0.0159,0.015,0.0146,0.015,0.015,0.0163,0.0164,0.0164,0.0174,0.0175,0.017,0.0171,0.0171,0.0171,0,0,0,0,0,0,0,0.0141,0.0141,0.0144,0.0143,0.0144,0.015,0.015,0.0157,0.0154,0.0147,0.0147,0.015,0.0163,0.0163,0.0165,0.0175,0.017,0.0171,0.0171,0.0172,0.0172,0.0172,0,0,0,0,0,0,0.0141,0.014,0.0143,0.0144,0.0144,0.015,0.015,0.0147,0.0154,0.0155,0.015,0.015,0.0162,0.0164,0.0165,0.017,0.0171,0.0172,0.0172,0.0173,0.0172,0.0172,0,0,0,0,0,0,0.0141,0.0141,0.0143,0.0144,0.0145,0.015,0.0147,0.0148,0.0152,0.0157,0.0158,0.0154,0.0162,0.0164,0.0171,0.0171,0.0172,0.0173,0.0173,0.0173,0.0172,0.0182,0,0,0,0,0,0,0.0141,0.0141,0.0139,0.0144,0.0145,0.0151,0.0147,0.0148,0.0154,0.0154,0.0161,0.0162,0.0162,0.017,0.0172,0.0172,0.0173,0.0174,0.0173,0.0172,0.0182,0.0182,0.0181,0,0,0,0,0,0.014,0.0145,0.0139,0.014,0.0142,0.0152,0.0153,0.0156,0.0155,0.0158,0.0159,0.0162,0.0166,0.0171,0.0173,0.0173,0.0174,0.0173,0.0172,0.0182,0.0182,0.0181,0,0,0,0,0,0,0.0148,0.0145,0.0139,0.0143,0.0147,0.0152,0.0158,0.0159,0.0162,0.016,0.0164,0.0165,0.0172,0.0168,0.0173,0.0168,0.0168,0.0167,0.0174,0.0174,0.0174,0.0185,0.0174,0,0,0,0,0,0.0147,0.0149,0.0146,0.0153,0.0151,0.0154,0.0158,0.0157,0.0162,0.0163,0.0169,0.0168,0.0169,0.0169,0.0172,0.0173,0.0165,0.017,0.017,0.017,0.0179,0.016,0.0159,0.0169,0.0169,0.0169,0,0,0.0152,0.0154,0.0153,0.0154,0.0156,0.0162,0.0156,0.0162,0.0172,0.0165,0.018,0.0174,0.017,0.0171,0.0172,0.0168,0.0161,0.0169,0.0169,0.0178,0.0159,0.0158,0.0158,0.0168,0.0168,0.0168,0,0,0.017,0.0163,0.0167,0.017,0.0172,0.0172,0.0174,0.0177,0.018,0.0187,0.0183,0.0178,0.0181,0.0177,0.0175,0.0174,0.0164,0.0168,0.0173,0.0154,0.0153,0.0153,0.0135,0.0133,0.0162,0.0162,0.0162,0,0.0175,0.0181,0.0173,0.0181,0.0187,0.0178,0.0186,0.019,0.0197,0.0202,0.0193,0.019,0.0186,0.0187,0.018,0.0176,0.0161,0.0177,0.0155,0.0154,0.0153,0.0135,0.0133,0.0162,0.0162,0.0162,0.0162,0,0.0195,0.02,0.0207,0.021,0.0214,0.0222,0.0221,0.0227,0.0224,0.0223,0.0225,0.0211,0.0207,0.0197,0.0188,0.0178,0.0168,0.0162,0.0159,0.0153,0.0134,0.0131,0.0163,0.0162,0.0162,0.0162,0,0,0.0201,0.0216,0.0217,0.0227,0.0228,0.0237,0.0249,0.0256,0.0267,0.0257,0.0265,0.025,0.0234,0.0229,0.0212,0.019,0.0163,0.0169,0.0168,0.0158,0.0119,0.0097,0.0092,0.0148,0.0148,0.0148,0.0106,0,0.0218,0.0241,0.0242,0.0266,0.0275,0.0274,0.0291,0.0295,0.029,0.0295,0.0272,0.0272,0.0249,0.024,0.0214,0.0182,0.0157,0.0176,0.0122,0.0121,0.0107,0.0089,0.0147,0.0104,0.0103,0.0103,0.0102,0,0.0229,0.0247,0.0271,0.0298,0.0301,0.0317,0.0335,0.0349,0.0347,0.0341,0.0326,0.0306,0.0281,0.0255,0.0199,0.0209,0.0166,0.0135,0.0133,0.0111,0.0094,0.0111,0.0097,0.0098,0.0098,0.0098,0.0099,0,0.0235,0.0264,0.0288,0.0297,0.0324,0.0342,0.0358,0.0364,0.0381,0.0371,0.037,0.0334,0.032,0.0263,0.0195,0.0194,0.0125,0.0117,0.006,0.0058,0.0087,0.0088,0.0075,0.0075,0.0075,0.0075,0.0075,0,0.0246,0.0267,0.03,0.0314,0.0354,0.0363,0.0401,0.0406,0.0417,0.0434,0.0397,0.0392,0.032,0.0269,0.0202,0.0121,0.013,0.0061,0.0045,0.009,0.0093,0.0085,0.0086,0.0073,0.0074,0.0074,0.0074,0,0.0246,0.0264,0.03,0.0339,0.0358,0.0387,0.0438,0.0464,0.0466,0.0484,0.0482,0.0439,0.0369,0.0289,0.0195,0.0137,0.0058,0.0026,0.0081,0.0068,0.0002,0.0005,-0.0038,-0.0039,-0.004,-0.0041,-0.0042,0,0.0248,0.0267,0.0319,0.0348,0.0373,0.0423,0.0461,0.0486,0.051,0.0511,0.0517,0.0459,0.0417,0.0275,0.0182,0.0051,0.0031,-0.001,-0.0005,0.0002,-0.001,-0.0006,-0.0002,-0.0043,-0.0043,-0.0044,-0.0044,0,0.0257,0.0277,0.0306,0.0365,0.0414,0.0468,0.0519,0.0539,0.0563,0.0569,0.0542,0.0466,0.0385,0.0271,0.0166,0.0072,0.0017,-0.002,-0.0018,-0.0014,-0.0005,-0.0015,-0.001,-0.0047,-0.0047,-0.0046,-0.0046,0,0.0266,0.0288,0.0328,0.0383,0.0439,0.0491,0.0522,0.0553,0.0576,0.0573,0.0563,0.0475,0.043,0.0281,0.0185,0.0087,0.0064,0.0035,0.0033,0.0036,0.0064,0.0087,0.0058,0,0,0,0,0,0.0276,0.0303,0.0347,0.0404,0.0458,0.0494,0.055,0.0576,0.06,0.0585,0.0574,0.0496,0.035,0.029,0.0189,0.0159,0.0041,0.0036,0.0005,-0.0066,-0.0062,-0.0044,0,0,0,0,0,0,0.0284,0.0322,0.0343,0.0409,0.0451,0.0516,0.0553,0.0573,0.0563,0.0568,0.0494,0.0466,0.0326,0.0408,0.0185,0.0156,0.0121,-0.0027,-0.003,-0.0068,-0.0064,-0.0061,-0.0041,0,0,0,0,0]}]]